[[{"header":{"parameterUnit":"m.s-1","parameterCategory":1,"la1":30.2992,"la2":30.254,"lo1":-89.0895,"lo2":-89.0443,"dy":0.0025,"dx":0.0025,"nx":19,"ny":19,"refTime":"2026-03-14T09:00:00:Z","depth":0,"parameterNumber":2,"parameterNumberName":"U-component_of_WINDS"},"data":[0,0,0,-3.8439,-3.8444,-3.8691,-3.8692,-3.8997,-3.9,0,0,0,0,0,0,0,0,0,0,0,-3.8359,-3.8361,-3.8439,-3.8445,-3.8691,-3.8692,-3.8996,-3.9,0,0,0,0,0,0,0,0,0,0,0,-3.8358,-3.836,-3.8362,-3.8446,-3.8691,-3.8692,-3.8996,-3.8814,0,0,0,0,0,0,0,0,0,0,-3.8576,-3.8495,-3.836,-3.8363,-3.8447,-3.8691,-3.8692,-3.8805,-3.8825,-3.888,0,-3.8926,0,-3.8967,-3.9019,-3.902,0,0,0,-3.8451,-3.8478,-3.8551,-3.8363,-3.8449,-3.869,-3.8582,-3.8817,-3.8839,-3.8907,-3.8931,-3.8942,-3.8972,-3.9021,-3.9022,-3.9314,-3.9315,0,0,-3.8437,-3.84,-3.8535,-3.8565,-3.8525,-3.8574,-3.8589,-3.883,-3.8855,-3.8932,-3.895,-3.8977,-3.9023,-3.9025,-3.9313,-3.9314,0,0,0,-3.8394,-3.839,-3.8457,-3.8552,-3.8597,-3.8581,-3.8599,-3.8844,-3.8869,-3.8953,-3.8981,-3.9025,-3.9028,-3.9312,-3.9313,-3.9327,0,0,0,-3.8386,-3.8365,-3.8451,-3.8431,-3.8592,-3.8724,-3.8607,-3.8852,-3.8881,-3.8979,-3.9025,-3.9031,-3.9311,-3.9313,-3.9324,-3.934,0,0,0,-3.8345,-3.836,-3.8393,-3.8428,-3.8532,-3.8721,-3.876,-3.8859,-3.8898,-3.902,-3.9032,-3.931,-3.9312,-3.9322,-3.9336,-3.9404,0,0,0,-3.8292,-3.8405,-3.8393,-3.853,-3.853,-3.8727,-3.8758,-3.8908,-3.9015,-3.9026,-3.9311,-3.9313,-3.9321,-3.9334,-3.9401,-3.9453,-3.9471,0,0,-3.8414,-3.8418,-3.8502,-3.8498,-3.8687,-3.8692,-3.8885,-3.902,-3.9068,-3.9229,-3.9237,-3.9325,-3.9336,-3.9403,-3.959,-3.9604,0,0,0,-3.8528,-3.8587,-3.8646,-3.8744,-3.8848,-3.8938,-3.9047,-3.9097,-3.9235,-3.9142,-3.937,-3.9378,-3.9419,-3.9445,-3.9458,-3.9494,-3.9324,-3.9324,-3.9324,-3.8647,-3.8699,-3.884,-3.892,-3.9016,-3.9125,-3.9207,-3.9293,-3.9321,-3.9373,-3.9421,-3.9528,-3.9558,-3.9567,-3.9605,-3.9454,-3.9454,-3.9455,-3.9455,-3.883,-3.8921,-3.895,-3.9097,-3.9151,-3.9277,-3.9386,-3.94,-3.9525,-3.9497,-3.9536,-3.9499,-3.9581,-3.9617,-3.9456,-3.9456,-3.9456,-3.9456,-3.9455,-3.8913,-3.8965,-3.9021,-3.9166,-3.9273,-3.9351,-3.9468,-3.9514,-3.9559,-3.9598,-3.9652,-3.9652,-3.9656,-3.962,-3.9621,-3.9621,-3.9621,-3.9622,-3.9622,-3.8976,-3.9039,-3.913,-3.9247,-3.9314,-3.9409,-3.9518,-3.9587,-3.9675,-3.9699,-3.97,-3.972,-3.9579,-3.9542,-3.9628,-3.9627,-3.9626,-3.9625,-3.9625,-3.914,-3.9109,-3.925,-3.9317,-3.9456,-3.9557,-3.9614,-3.9748,-3.9812,-3.9868,-3.988,-3.9768,-3.9777,-3.9768,-3.9737,-3.9869,-3.9869,-3.9869,-3.9869,-3.9209,-3.9217,-3.9369,-3.9473,-3.958,-3.9644,-3.9801,-3.9886,-3.997,-4.0013,-4.0,-3.9964,-3.9952,-3.9968,-3.9955,-3.9927,-4.0104,-4.0104,-4.0104,-3.9312,-3.9332,-3.9456,-3.9534,-3.9646,-3.974,-3.9889,-4.0007,-4.0097,-4.0115,-4.0046,-4.0036,-3.9978,-3.9957,-3.9973,-3.9951,-3.99,0,0]},{"header":{"parameterUnit":"m.s-1","parameterCategory":1,"la1":30.2992,"la2":30.254,"lo1":-89.0895,"lo2":-89.0443,"dy":0.0025,"dx":0.0025,"nx":19,"ny":19,"refTime":"2026-03-14T09:00:00:Z","depth":0,"parameterNumber":3,"parameterNumberName":"V-component_of_WINDS"},"data":[0,0,0,3.5808,3.5812,3.5973,3.5974,3.618,3.6182,0,0,0,0,0,0,0,0,0,0,0,3.5762,3.5764,3.5808,3.5812,3.5973,3.5974,3.6179,3.6182,0,0,0,0,0,0,0,0,0,0,0,3.5761,3.5763,3.5765,3.5813,3.5973,3.5974,3.6179,3.6057,0,0,0,0,0,0,0,0,0,0,3.59,3.586,3.5763,3.5765,3.5814,3.5973,3.5974,3.6051,3.6065,3.6107,0,3.6147,0,3.6168,3.6196,3.6196,0,0,0,3.5811,3.5849,3.5891,3.5765,3.5815,3.5972,3.59,3.6059,3.6074,3.6125,3.615,3.6157,3.6171,3.6197,3.6198,3.6451,3.6452,0,0,3.5802,3.5792,3.588,3.5901,3.5878,3.5895,3.5905,3.6068,3.6094,3.6151,3.6162,3.6174,3.6198,3.62,3.645,3.6451,0,0,0,3.5777,3.5786,3.5824,3.5892,3.5921,3.59,3.5911,3.6086,3.61,3.6164,3.6177,3.6199,3.6202,3.6449,3.645,3.6503,0,0,0,3.5772,3.5771,3.582,3.5815,3.5918,3.6006,3.5926,3.6088,3.6107,3.6176,3.62,3.6204,3.6447,3.645,3.6499,3.653,0,0,0,3.5751,3.5769,3.5793,3.5815,3.5884,3.6004,3.6027,3.6093,3.6115,3.6196,3.6205,3.6446,3.6449,3.6495,3.6523,3.6593,0,0,0,3.5726,3.5838,3.5794,3.5923,3.5882,3.6035,3.6026,3.614,3.6216,3.6201,3.6447,3.645,3.6494,3.6519,3.6589,3.665,3.6675,0,0,3.5861,3.5853,3.593,3.5895,3.6054,3.6012,3.6178,3.6256,3.6273,3.639,3.6397,3.65,3.6523,3.6592,3.6817,3.6836,0,0,0,3.5969,3.6024,3.6068,3.6141,3.6204,3.626,3.6315,3.6344,3.6444,3.6332,3.6544,3.6558,3.6599,3.6629,3.6646,3.6682,3.6464,3.6463,3.6463,3.6147,3.6162,3.6289,3.6323,3.6393,3.6448,3.6506,3.6554,3.6548,3.6598,3.6633,3.6768,3.6802,3.6815,3.6852,3.6667,3.6667,3.6667,3.6667,3.6346,3.6426,3.6415,3.6535,3.6549,3.665,3.6706,3.6698,3.6793,3.6743,3.678,3.6724,3.6836,3.6869,3.6671,3.6671,3.667,3.667,3.6669,3.6465,3.6505,3.6539,3.6644,3.6723,3.6752,3.6844,3.6853,3.6863,3.69,3.6937,3.6937,3.6937,3.6917,3.6917,3.6918,3.6918,3.6919,3.6919,3.6575,3.661,3.6686,3.6761,3.6808,3.6871,3.6926,3.6972,3.7025,3.7025,3.7025,3.7014,3.6844,3.6801,3.6926,3.6925,3.6924,3.6923,3.6923,3.6772,3.6728,3.6846,3.6893,3.6981,3.7058,3.7069,3.7161,3.7201,3.7245,3.7226,3.7099,3.7091,3.7078,3.7043,3.7223,3.7223,3.7223,3.7223,3.6872,3.6869,3.699,3.7065,3.7138,3.7159,3.729,3.7333,3.737,3.7395,3.737,3.7324,3.731,3.7311,3.7293,3.726,3.7491,3.7491,3.7491,3.6994,3.6998,3.7109,3.7144,3.7213,3.7272,3.7395,3.748,3.7513,3.7502,3.7415,3.7403,3.7329,3.7304,3.7292,3.7264,3.7203,0,0]}]]